Weather History for KCQW - January, 2013

Change the Weather History Date:

Friday, January 18, 2013

  Actual Average (KFLO) Record (KFLO)
Temperature  
Mean Temperature 40 °F 45 °F  
Max Temperature 48 °F 55 °F 79 °F (1996)
Min Temperature 32 °F 35 °F 17 °F (1959)
Degree Days  
Heating Degree Days 25 20  
Month to date heating degree days 367  
Since 1 July heating degree days 1346  
Cooling Degree Days 0 0  
Month to date cooling degree days 0  
Year to date cooling degree days 0  
Moisture  
Dew Point 29 °F    
Average Humidity 72    
Maximum Humidity 100    
Minimum Humidity 34    
Precipitation  
Precipitation 0.00 in 0.10 in 1.22 in (1963)
Month to date precipitation 1.90  
Year to date precipitation 1.90  
Sea Level Pressure  
Sea Level Pressure 30.42 in    
Wind  
Wind Speed 13 mph (North)    
Max Wind Speed 29 mph    
Max Gust Speed 45 mph    
Visibility 10 miles    
Events      
T = Trace of Precipitation, MM = Missing Value Source: NWS Daily Summary

Daily Weather History Graph

Daily Weather History Graph

Search for Another Location

Airport or City:

Trip Planner

Search our weather history database for the weather conditions in past years. The results will help you decide how hot, cold, wet, or windy it might be!

Date:

Astronomy

Jan. 18, 2013 Rise Set
Actual Time 7:25 AM EST 5:35 PM EST
Civil Twilight 6:58 AM EST 6:02 PM EST
Nautical Twilight 6:27 AM EST 6:33 PM EST
Astronomical Twilight 5:57 AM EST 7:03 PM EST
Moon 11:23 AM EST (1/18) 12:04 AM EST (1/18)
Length of Visible Light 11h 04m
Length of Day
10h 09m
Waxing Crescent, 47% of the Moon is Illuminated
Jan 18
Waxing Crescent
Jan 18
First Quarter
Jan 26
Full
Feb 3
Last Quarter
Feb 10
New

Hourly Weather History & Observations

Time (EST) Temp. Windchill Dew Point Humidity Pressure Visibility Wind Dir Wind Speed Gust Speed Precip Events Conditions
12:15 AM 35.6 °F 25.9 °F 35.6 °F 100% 30.15 in 10.0 mi North 16.1 mph 35.7 mph N/A   Overcast
12:35 AM 35.6 °F 24.0 °F 35.6 °F 100% 30.17 in 10.0 mi North 23.0 mph 27.6 mph N/A   Mostly Cloudy
12:55 AM 35.6 °F 26.2 °F 35.6 °F 100% 30.18 in 10.0 mi North 15.0 mph 28.8 mph N/A   Overcast
1:15 AM 35.6 °F 25.9 °F 35.6 °F 100% 30.20 in 10.0 mi North 16.1 mph 24.2 mph N/A   Mostly Cloudy
1:35 AM 35.6 °F 25.9 °F 35.6 °F 100% 30.22 in 10.0 mi North 16.1 mph 23.0 mph N/A   Partly Cloudy
1:55 AM 35.6 °F 24.0 °F 35.6 °F 100% 30.25 in 10.0 mi NNW 23.0 mph 27.6 mph N/A   Scattered Clouds
2:15 AM 35.6 °F 27.1 °F 35.6 °F 100% 30.25 in 10.0 mi NNW 12.7 mph 24.2 mph N/A   Overcast
2:35 AM 35.6 °F 29.2 °F 35.6 °F 100% 30.25 in 10.0 mi North 8.1 mph 17.3 mph N/A   Mostly Cloudy
2:55 AM 35.6 °F 29.2 °F 33.8 °F 93% 30.26 in 10.0 mi NNW 8.1 mph - N/A   Partly Cloudy
3:15 AM 35.6 °F - 33.8 °F 93% 30.27 in 10.0 mi Calm Calm - N/A   Clear
3:55 AM 33.8 °F 27.7 °F 33.8 °F 100% 30.29 in 10.0 mi NW 6.9 mph - N/A   Clear
4:15 AM 33.8 °F 28.6 °F 33.8 °F 100% 30.29 in 10.0 mi NW 5.8 mph - N/A   Clear
4:35 AM 33.8 °F - 33.8 °F 100% 30.29 in 10.0 mi Calm Calm - N/A   Clear
4:55 AM 32.0 °F 26.4 °F 32.0 °F 100% 30.30 in 10.0 mi WNW 5.8 mph - N/A   Clear
5:15 AM 32.0 °F 25.6 °F 32.0 °F 100% 30.30 in 10.0 mi NNW 6.9 mph - N/A   Clear
5:35 AM 33.8 °F 23.2 °F 33.8 °F 100% 30.30 in 10.0 mi NNW 17.3 mph 25.3 mph N/A   Clear
5:55 AM 33.8 °F 25.8 °F 32.0 °F 93% 30.32 in 10.0 mi NNW 10.4 mph 19.6 mph N/A   Clear
6:15 AM 33.8 °F 25.3 °F 32.0 °F 93% 30.33 in 10.0 mi NNW 11.5 mph 17.3 mph N/A   Clear
6:35 AM 33.8 °F 25.3 °F 32.0 °F 93% 30.34 in 10.0 mi NNW 11.5 mph 19.6 mph N/A   Clear
6:55 AM 32.0 °F 23.6 °F 32.0 °F 100% 30.35 in 10.0 mi NNW 10.4 mph - N/A   Clear
7:15 AM 32.0 °F 28.7 °F 32.0 °F 100% 30.36 in 10.0 mi NNW 3.5 mph - N/A   Clear
7:35 AM 32.0 °F 28.7 °F 32.0 °F 100% 30.38 in 10.0 mi North 3.5 mph - N/A   Clear
7:55 AM 32.0 °F - 32.0 °F 100% 30.39 in 10.0 mi Calm Calm - N/A   Clear
8:15 AM 32.0 °F - 32.0 °F 100% 30.41 in 10.0 mi Calm Calm - N/A   Clear
8:35 AM 33.8 °F 25.8 °F 32.0 °F 93% 30.42 in 10.0 mi NNW 10.4 mph - N/A   Clear
8:55 AM 35.6 °F 25.5 °F 32.0 °F 87% 30.44 in 10.0 mi North 17.3 mph 20.7 mph N/A   Clear
9:15 AM 35.6 °F 25.5 °F 32.0 °F 87% 30.46 in 10.0 mi North 17.3 mph 20.7 mph N/A   Clear
9:35 AM 37.4 °F 27.2 °F 32.0 °F 81% 30.48 in 10.0 mi North 19.6 mph 26.5 mph N/A   Clear
9:55 AM 39.2 °F 30.8 °F 33.8 °F 81% 30.49 in 10.0 mi North 15.0 mph 26.5 mph N/A   Clear
10:15 AM 41.0 °F 33.1 °F 32.0 °F 70% 30.49 in 10.0 mi North 15.0 mph 28.8 mph N/A   Clear
10:35 AM 42.8 °F 33.5 °F 32.0 °F 66% 30.49 in 10.0 mi NNE 23.0 mph 34.5 mph N/A   Clear
10:55 AM 42.8 °F 33.1 °F 28.4 °F 57% 30.50 in 10.0 mi NNE 25.3 mph 38.0 mph N/A   Clear
11:15 AM 44.6 °F 35.1 °F 28.4 °F 53% 30.49 in 10.0 mi NNE 27.6 mph 38.0 mph N/A   Clear
11:35 AM 44.6 °F 36.4 °F 26.6 °F 49% 30.49 in 10.0 mi NNE 20.7 mph 31.1 mph N/A   Clear
11:55 AM 46.4 °F 37.9 °F 26.6 °F 46% 30.48 in 10.0 mi NNE 25.3 mph 35.7 mph N/A   Clear
12:15 PM 46.4 °F 37.4 °F 23.0 °F 40% 30.48 in 10.0 mi NE 28.8 mph 44.9 mph N/A   Clear
12:35 PM 46.4 °F 37.7 °F 26.6 °F 46% 30.47 in 10.0 mi NNE 26.5 mph 43.7 mph N/A   Clear
12:55 PM 48.2 °F - 26.6 °F 43% 30.46 in 10.0 mi NNE 25.3 mph 31.1 mph N/A   Clear
1:15 PM 48.2 °F - 23.0 °F 37% 30.46 in 10.0 mi NNE 16.1 mph 28.8 mph N/A   Clear
1:35 PM 48.2 °F - 21.2 °F 34% 30.46 in 10.0 mi North 23.0 mph 38.0 mph N/A   Clear
1:55 PM 48.2 °F - 21.2 °F 34% 30.46 in 10.0 mi NNE 25.3 mph 33.4 mph N/A   Clear
2:15 PM 48.2 °F - 21.2 °F 34% 30.46 in 10.0 mi North 23.0 mph 29.9 mph N/A   Clear
2:35 PM 48.2 °F - 21.2 °F 34% 30.46 in 10.0 mi North 19.6 mph 33.4 mph N/A   Clear
2:55 PM 48.2 °F - 21.2 °F 34% 30.46 in 10.0 mi NNE 17.3 mph 26.5 mph N/A   Clear
3:15 PM 48.2 °F - 21.2 °F 34% 30.46 in 10.0 mi North 16.1 mph 29.9 mph N/A   Clear
3:35 PM 48.2 °F - 21.2 °F 34% 30.46 in 10.0 mi NNE 18.4 mph - N/A   Clear
3:55 PM 48.2 °F - 21.2 °F 34% 30.47 in 10.0 mi North 10.4 mph - N/A   Clear
4:15 PM 48.2 °F - 21.2 °F 34% 30.47 in 10.0 mi North 16.1 mph 23.0 mph N/A   Clear
4:35 PM 48.2 °F - 21.2 °F 34% 30.47 in 10.0 mi North 15.0 mph 23.0 mph N/A   Clear
4:55 PM 46.4 °F 41.1 °F 21.2 °F 37% 30.48 in 10.0 mi North 11.5 mph - N/A   Clear
5:15 PM 44.6 °F 40.2 °F 21.2 °F 39% 30.49 in 10.0 mi North 8.1 mph - N/A   Clear
5:35 PM 42.8 °F 38.6 °F 23.0 °F 46% 30.49 in 10.0 mi North 6.9 mph - N/A   Clear
5:55 PM 42.8 °F 38.6 °F 23.0 °F 46% 30.49 in 10.0 mi North 6.9 mph - N/A   Clear
6:15 PM 39.2 °F 35.0 °F 26.6 °F 61% 30.50 in 10.0 mi North 5.8 mph - N/A   Clear
6:35 PM 37.4 °F 32.1 °F 26.6 °F 65% 30.51 in 10.0 mi North 6.9 mph - N/A   Clear
6:55 PM 37.4 °F 31.4 °F 26.6 °F 65% 30.52 in 10.0 mi North 8.1 mph - N/A   Clear
7:15 PM 37.4 °F 32.1 °F 24.8 °F 60% 30.52 in 10.0 mi North 6.9 mph - N/A   Clear
7:35 PM 37.4 °F 33.8 °F 26.6 °F 65% 30.52 in 10.0 mi NNE 4.6 mph - N/A   Clear
7:55 PM 35.6 °F 30.7 °F 26.6 °F 70% 30.52 in 10.0 mi NNE 5.8 mph - N/A   Clear
8:15 PM 35.6 °F - 26.6 °F 70% 30.53 in 10.0 mi Calm Calm - N/A   Clear
8:55 PM 35.6 °F 31.7 °F 28.4 °F 75% 30.53 in 10.0 mi NNE 4.6 mph - N/A   Clear
9:15 PM 35.6 °F - 26.6 °F 70% 30.53 in 10.0 mi Calm Calm - N/A   Clear
9:55 PM 35.6 °F 31.7 °F 26.6 °F 70% 30.53 in 10.0 mi NNE 4.6 mph - N/A   Clear
10:15 PM 33.8 °F 29.6 °F 26.6 °F 75% 30.52 in 10.0 mi NNE 4.6 mph - N/A   Clear
10:35 PM 33.8 °F - 26.6 °F 75% 30.51 in 10.0 mi Calm Calm - N/A   Clear
10:55 PM 32.0 °F - 26.6 °F 80% 30.51 in 10.0 mi Calm Calm - N/A   Clear
11:15 PM 32.0 °F - 26.6 °F 80% 30.51 in 10.0 mi Calm Calm - N/A   Clear
11:35 PM 32.0 °F - 26.6 °F 80% 30.51 in 10.0 mi Calm Calm - N/A   Clear
11:55 PM 32.0 °F - 26.6 °F 80% 30.51 in 10.0 mi Calm Calm - N/A   Clear